[[{"header":{"parameterUnit":"m.s-1","parameterCategory":2,"la1":30.2992,"la2":30.254,"lo1":-89.0895,"lo2":-89.0443,"dy":0.0025,"dx":0.0025,"nx":19,"ny":19,"refTime":"2026-04-21T21:00:00:Z","depth":"0","parameterNumber":2,"parameterNumberName":"U-component_of_CURRENTS"},"data":[0,0,0,-0.3094,-0.3095,-0.313,-0.313,-0.3122,-0.3122,0,0,0,0,0,0,0,0,0,0,0,-0.3068,-0.3068,-0.3094,-0.3096,-0.313,-0.313,-0.3122,-0.3122,0,0,0,0,0,0,0,0,0,0,0,-0.3068,-0.3068,-0.3069,-0.3096,-0.313,-0.313,-0.3122,-0.3107,0,0,0,0,0,0,0,0,0,0,-0.3079,-0.3059,-0.3068,-0.3069,-0.3096,-0.313,-0.313,-0.3107,-0.3108,-0.3094,0,-0.3096,0,-0.3117,-0.3121,-0.3121,0,0,0,-0.3088,-0.3058,-0.3078,-0.3069,-0.3096,-0.313,-0.3112,-0.3108,-0.3109,-0.3095,-0.3096,-0.3096,-0.3117,-0.3121,-0.3121,-0.3121,-0.3121,0,0,-0.3086,-0.3065,-0.3077,-0.3078,-0.31,-0.3111,-0.3114,-0.3109,-0.3101,-0.3096,-0.3097,-0.3117,-0.3121,-0.3121,-0.3121,-0.3121,0,0,0,-0.3086,-0.3064,-0.3084,-0.3078,-0.3093,-0.3113,-0.3115,-0.3101,-0.311,-0.3097,-0.3117,-0.3121,-0.3121,-0.3121,-0.3121,-0.3159,0,0,0,-0.3084,-0.3065,-0.3083,-0.3069,-0.3093,-0.3104,-0.3106,-0.311,-0.3111,-0.3117,-0.3121,-0.312,-0.312,-0.3121,-0.3158,-0.3174,0,0,0,-0.3068,-0.3063,-0.3068,-0.3068,-0.309,-0.3105,-0.3114,-0.3111,-0.3123,-0.3121,-0.312,-0.312,-0.3121,-0.3156,-0.3172,-0.3166,0,0,0,-0.3045,-0.3049,-0.3066,-0.3083,-0.309,-0.3133,-0.3114,-0.3134,-0.3135,-0.3121,-0.312,-0.3121,-0.3156,-0.3171,-0.3165,-0.2939,-0.2925,0,0,-0.3041,-0.3047,-0.3063,-0.3081,-0.3124,-0.3128,-0.3163,-0.3152,-0.3132,-0.3116,-0.3117,-0.3158,-0.3172,-0.3166,-0.2955,-0.294,0,0,0,-0.3058,-0.3063,-0.3081,-0.311,-0.3146,-0.3175,-0.3176,-0.317,-0.3159,-0.3136,-0.3153,-0.316,-0.3155,-0.3016,-0.3005,-0.2909,-0.3122,-0.3122,-0.3122,-0.3004,-0.3051,-0.3075,-0.3129,-0.3163,-0.3203,-0.322,-0.3208,-0.3185,-0.3182,-0.3188,-0.3205,-0.3057,-0.3046,-0.2951,-0.3183,-0.3183,-0.3183,-0.3183,-0.2989,-0.299,-0.3068,-0.3105,-0.3161,-0.3192,-0.3243,-0.324,-0.3239,-0.3216,-0.3209,-0.3059,-0.3035,-0.2938,-0.3186,-0.3185,-0.3185,-0.3185,-0.3184,-0.2922,-0.2927,-0.2973,-0.3036,-0.31,-0.3173,-0.3211,-0.3254,-0.3259,-0.3273,-0.3085,-0.3081,-0.2997,-0.3254,-0.3254,-0.3254,-0.3254,-0.3255,-0.3255,-0.2808,-0.2862,-0.2868,-0.2962,-0.2992,-0.307,-0.3179,-0.3192,-0.3145,-0.3103,-0.31,-0.2968,-0.3226,-0.3224,-0.3255,-0.3255,-0.3255,-0.3255,-0.3255,-0.2671,-0.2712,-0.2716,-0.2742,-0.2833,-0.2819,-0.2992,-0.2948,-0.2979,-0.2901,-0.2758,-0.2997,-0.2957,-0.2963,-0.2954,-0.2913,-0.2913,-0.2913,-0.2913,-0.2547,-0.2584,-0.2545,-0.2556,-0.2604,-0.2685,-0.2564,-0.2573,-0.2544,-0.2472,-0.2571,-0.2491,-0.2509,-0.2442,-0.2459,-0.244,-0.2271,-0.227,-0.227,-0.2426,-0.2453,-0.2364,-0.2422,-0.2471,-0.2479,-0.2275,-0.216,-0.2165,-0.2246,-0.2491,-0.2518,-0.2412,-0.2448,-0.2351,-0.2382,-0.2354,0,0]},{"header":{"parameterUnit":"m.s-1","parameterCategory":2,"la1":30.2992,"la2":30.254,"lo1":-89.0895,"lo2":-89.0443,"dy":0.0025,"dx":0.0025,"nx":19,"ny":19,"refTime":"2026-04-21T21:00:00:Z","depth":"0","parameterNumber":3,"parameterNumberName":"V-component_of_CURRENTS"},"data":[0,0,0,-0.0644,-0.0643,-0.0569,-0.0569,-0.0417,-0.0416,0,0,0,0,0,0,0,0,0,0,0,-0.0669,-0.0669,-0.0644,-0.0642,-0.057,-0.0569,-0.0417,-0.0416,0,0,0,0,0,0,0,0,0,0,0,-0.0669,-0.0669,-0.0669,-0.0642,-0.057,-0.0569,-0.0418,-0.0484,0,0,0,0,0,0,0,0,0,0,-0.056,-0.0597,-0.0669,-0.0669,-0.0642,-0.057,-0.0569,-0.0487,-0.0479,-0.0438,0,-0.0438,0,-0.0428,-0.0406,-0.0405,0,0,0,-0.0627,-0.0604,-0.0587,-0.0669,-0.0642,-0.057,-0.0598,-0.0483,-0.0474,-0.0428,-0.0436,-0.043,-0.0425,-0.0405,-0.0404,-0.0301,-0.0301,0,0,-0.0631,-0.0647,-0.0594,-0.0582,-0.0635,-0.0601,-0.0596,-0.0478,-0.0471,-0.0435,-0.0427,-0.0423,-0.0404,-0.0402,-0.0301,-0.0301,0,0,0,-0.0653,-0.065,-0.0636,-0.0588,-0.0582,-0.0599,-0.0594,-0.0476,-0.0473,-0.0425,-0.0421,-0.0403,-0.0401,-0.0301,-0.0301,-0.0391,0,0,0,-0.0655,-0.0663,-0.0639,-0.0645,-0.0585,-0.0536,-0.0594,-0.0481,-0.0468,-0.0422,-0.0403,-0.0399,-0.0301,-0.0301,-0.0389,-0.0426,0,0,0,-0.067,-0.0665,-0.0661,-0.0647,-0.0622,-0.0539,-0.0528,-0.0478,-0.0465,-0.0405,-0.0399,-0.0301,-0.0301,-0.0387,-0.0422,-0.0338,0,0,0,-0.068,-0.0714,-0.0662,-0.0695,-0.0623,-0.0614,-0.0529,-0.0504,-0.0463,-0.0402,-0.0301,-0.0301,-0.0386,-0.0419,-0.0337,-0.0227,-0.0221,0,0,-0.0738,-0.072,-0.0743,-0.0697,-0.0722,-0.0622,-0.0612,-0.052,-0.0442,-0.0333,-0.0331,-0.039,-0.0421,-0.0338,-0.0228,-0.0222,0,0,0,-0.0773,-0.0791,-0.079,-0.0787,-0.0749,-0.0694,-0.0602,-0.0535,-0.0438,-0.0419,-0.0365,-0.0381,-0.0325,-0.0257,-0.0252,-0.0014,-0.0302,-0.0302,-0.0302,-0.0863,-0.0851,-0.0889,-0.0865,-0.084,-0.0735,-0.0669,-0.0551,-0.0486,-0.045,-0.0437,-0.0413,-0.0344,-0.0338,-0.0096,-0.0416,-0.0416,-0.0416,-0.0416,-0.0966,-0.0995,-0.0958,-0.0993,-0.0915,-0.0881,-0.0716,-0.0642,-0.0496,-0.0478,-0.0418,-0.0335,-0.0338,-0.0081,-0.0422,-0.0421,-0.042,-0.042,-0.0419,-0.1034,-0.1048,-0.106,-0.1085,-0.1057,-0.0961,-0.0863,-0.0738,-0.0571,-0.0529,-0.0354,-0.0351,-0.0131,-0.0473,-0.0473,-0.0473,-0.0473,-0.0473,-0.0473,-0.1099,-0.111,-0.1166,-0.1178,-0.1185,-0.1132,-0.0949,-0.0811,-0.056,-0.0422,-0.0419,-0.0081,-0.0428,-0.0433,-0.047,-0.0471,-0.0471,-0.0471,-0.0471,-0.1189,-0.1188,-0.1277,-0.1306,-0.1315,-0.1244,-0.1075,-0.0712,-0.053,-0.0357,0.0048,-0.0314,-0.0249,-0.0251,-0.0249,-0.0236,-0.0236,-0.0236,-0.0236,-0.1238,-0.1249,-0.1358,-0.1413,-0.1423,-0.1297,-0.1028,-0.0639,-0.0073,0.0219,0.0278,0.0319,0.0299,0.0398,0.0382,0.0398,0.0575,0.0577,0.0578,-0.1285,-0.132,-0.1395,-0.1454,-0.1469,-0.132,-0.1018,-0.0497,0.0309,0.0632,0.059,0.0556,0.0631,0.058,0.0745,0.0703,0.0731,0,0]}],[{"header":{"parameterUnit":"m.s-1","parameterCategory":2,"la1":30.2992,"la2":30.254,"lo1":-89.0895,"lo2":-89.0443,"dy":0.0025,"dx":0.0025,"nx":19,"ny":19,"refTime":"2026-04-21T21:00:00:Z","depth":"2","parameterNumber":2,"parameterNumberName":"U-component_of_CURRENTS"},"data":[0,0,0,-0.2825,-0.2826,-0.2874,-0.2875,-0.2868,-0.2868,0,0,0,0,0,0,0,0,0,0,0,-0.2797,-0.2797,-0.2825,-0.2826,-0.2874,-0.2875,-0.2868,-0.2868,0,0,0,0,0,0,0,0,0,0,0,-0.2797,-0.2797,-0.2797,-0.2827,-0.2874,-0.2875,-0.2868,-0.2847,0,0,0,0,0,0,0,0,0,0,-0.2808,-0.2791,-0.2797,-0.2797,-0.2827,-0.2874,-0.2875,-0.2846,-0.2848,-0.2829,0,-0.2835,0,-0.2858,-0.2866,-0.2866,0,0,0,-0.2819,-0.2789,-0.2809,-0.2797,-0.2827,-0.2874,-0.2851,-0.2848,-0.285,-0.2831,-0.2836,-0.2836,-0.2858,-0.2866,-0.2866,-0.2862,-0.2862,0,0,-0.2816,-0.2798,-0.2808,-0.281,-0.2837,-0.2849,-0.2852,-0.285,-0.2844,-0.2836,-0.2837,-0.2858,-0.2866,-0.2866,-0.2862,-0.2862,0,0,0,-0.2814,-0.2796,-0.2817,-0.281,-0.2828,-0.2851,-0.2854,-0.2844,-0.2853,-0.2837,-0.2858,-0.2866,-0.2866,-0.2862,-0.2862,-0.2906,0,0,0,-0.2812,-0.2796,-0.2816,-0.2804,-0.2828,-0.2846,-0.2849,-0.2853,-0.2854,-0.2858,-0.2866,-0.2866,-0.2862,-0.2862,-0.2905,-0.2919,0,0,0,-0.2795,-0.2794,-0.28,-0.2803,-0.283,-0.2847,-0.2856,-0.2854,-0.2867,-0.2866,-0.2866,-0.2862,-0.2862,-0.2904,-0.2917,-0.2901,0,0,0,-0.2773,-0.2782,-0.28,-0.2819,-0.283,-0.2872,-0.2856,-0.288,-0.2883,-0.2866,-0.2862,-0.2862,-0.2903,-0.2915,-0.29,-0.2677,-0.2663,0,0,-0.2774,-0.2781,-0.2796,-0.2815,-0.2856,-0.2865,-0.29,-0.2896,-0.2876,-0.2856,-0.2857,-0.2905,-0.2917,-0.2901,-0.2692,-0.2677,0,0,0,-0.2792,-0.2798,-0.2815,-0.2844,-0.2879,-0.291,-0.2916,-0.2912,-0.2906,-0.2881,-0.2898,-0.2903,-0.2892,-0.2755,-0.2744,-0.2863,-0.2863,-0.2863,-0.2863,-0.2749,-0.2789,-0.2814,-0.2862,-0.2895,-0.2937,-0.2956,-0.2947,-0.2928,-0.2929,-0.2934,-0.2945,-0.2801,-0.279,-0.293,-0.2931,-0.2931,-0.2931,-0.2931,-0.2737,-0.2739,-0.2809,-0.2845,-0.2898,-0.2931,-0.2978,-0.298,-0.2979,-0.2963,-0.2949,-0.2802,-0.2779,-0.2934,-0.2934,-0.2933,-0.2933,-0.2933,-0.2932,-0.268,-0.2684,-0.2729,-0.2787,-0.2849,-0.2919,-0.2949,-0.2997,-0.3001,-0.3013,-0.2822,-0.2818,-0.296,-0.2992,-0.2992,-0.2992,-0.2992,-0.2992,-0.2992,-0.2579,-0.263,-0.2637,-0.2724,-0.2751,-0.2823,-0.2922,-0.2929,-0.2879,-0.284,-0.2837,-0.2965,-0.2963,-0.2962,-0.2993,-0.2993,-0.2993,-0.2993,-0.2993,-0.2455,-0.2495,-0.2497,-0.252,-0.2595,-0.2564,-0.2728,-0.2672,-0.2698,-0.2617,-0.2723,-0.273,-0.2685,-0.269,-0.2681,-0.2637,-0.2637,-0.2637,-0.2637,-0.2343,-0.2378,-0.2336,-0.2338,-0.2366,-0.2425,-0.2275,-0.2245,-0.231,-0.2294,-0.231,-0.2244,-0.2265,-0.2194,-0.2211,-0.2192,-0.2021,-0.2021,-0.202,-0.2229,-0.2253,-0.2166,-0.2211,-0.2235,-0.221,-0.1971,-0.1761,-0.1776,-0.2001,-0.2263,-0.2584,-0.2527,-0.2544,-0.2468,-0.2483,-0.2465,0,0]},{"header":{"parameterUnit":"m.s-1","parameterCategory":2,"la1":30.2992,"la2":30.254,"lo1":-89.0895,"lo2":-89.0443,"dy":0.0025,"dx":0.0025,"nx":19,"ny":19,"refTime":"2026-04-21T21:00:00:Z","depth":"2","parameterNumber":3,"parameterNumberName":"V-component_of_CURRENTS"},"data":[0,0,0,-0.0637,-0.0636,-0.0563,-0.0563,-0.0409,-0.0407,0,0,0,0,0,0,0,0,0,0,0,-0.0663,-0.0662,-0.0637,-0.0636,-0.0563,-0.0563,-0.0409,-0.0407,0,0,0,0,0,0,0,0,0,0,0,-0.0663,-0.0662,-0.0662,-0.0636,-0.0563,-0.0563,-0.0409,-0.0476,0,0,0,0,0,0,0,0,0,0,-0.0552,-0.059,-0.0662,-0.0662,-0.0635,-0.0564,-0.0563,-0.0479,-0.0471,-0.0429,0,-0.0429,0,-0.0419,-0.0397,-0.0396,0,0,0,-0.0621,-0.0597,-0.058,-0.0662,-0.0635,-0.0564,-0.0592,-0.0475,-0.0466,-0.0418,-0.0427,-0.0421,-0.0416,-0.0396,-0.0395,-0.0279,-0.0279,0,0,-0.0625,-0.0641,-0.0586,-0.0575,-0.0629,-0.0594,-0.059,-0.047,-0.0463,-0.0426,-0.0418,-0.0414,-0.0395,-0.0394,-0.0279,-0.0279,0,0,0,-0.0646,-0.0644,-0.063,-0.0581,-0.0575,-0.0593,-0.0587,-0.0469,-0.0465,-0.0416,-0.0412,-0.0394,-0.0392,-0.0279,-0.0279,-0.0374,0,0,0,-0.0648,-0.0657,-0.0632,-0.064,-0.0578,-0.053,-0.0588,-0.0474,-0.046,-0.0413,-0.0394,-0.0391,-0.0279,-0.0279,-0.0372,-0.0416,0,0,0,-0.0664,-0.0659,-0.0655,-0.0641,-0.0617,-0.0532,-0.0521,-0.0471,-0.0457,-0.0396,-0.039,-0.0279,-0.0279,-0.037,-0.0412,-0.0349,0,0,0,-0.0674,-0.0699,-0.0656,-0.0678,-0.0618,-0.0596,-0.0522,-0.0491,-0.0448,-0.0393,-0.0279,-0.0279,-0.0369,-0.0409,-0.0348,-0.0267,-0.0265,0,0,-0.0718,-0.0704,-0.0719,-0.068,-0.0693,-0.0604,-0.0585,-0.0498,-0.0422,-0.0311,-0.0309,-0.0372,-0.0411,-0.0348,-0.0251,-0.0249,0,0,0,-0.0742,-0.0757,-0.0752,-0.0746,-0.0706,-0.0659,-0.0569,-0.0508,-0.0415,-0.0397,-0.034,-0.036,-0.0318,-0.0266,-0.0265,-0.0278,-0.0278,-0.0278,-0.0278,-0.0819,-0.0805,-0.0834,-0.0809,-0.0782,-0.0686,-0.0628,-0.0519,-0.0452,-0.042,-0.0414,-0.0402,-0.0349,-0.0347,-0.0383,-0.0384,-0.0384,-0.0384,-0.0384,-0.0907,-0.0933,-0.0898,-0.0926,-0.0858,-0.0824,-0.0674,-0.0608,-0.0481,-0.0454,-0.0406,-0.0341,-0.0351,-0.0391,-0.039,-0.0389,-0.0388,-0.0388,-0.0387,-0.0972,-0.0986,-0.0995,-0.1019,-0.0998,-0.0909,-0.0834,-0.0717,-0.0564,-0.0532,-0.0385,-0.0382,-0.044,-0.0485,-0.0485,-0.0485,-0.0485,-0.0485,-0.0485,-0.104,-0.1048,-0.1104,-0.1116,-0.1128,-0.1089,-0.0931,-0.0815,-0.0594,-0.0465,-0.0463,-0.0433,-0.043,-0.0442,-0.0484,-0.0484,-0.0484,-0.0484,-0.0484,-0.1128,-0.113,-0.1218,-0.1251,-0.1272,-0.1222,-0.1074,-0.0767,-0.0608,-0.0458,-0.0381,-0.0384,-0.0325,-0.0323,-0.033,-0.034,-0.034,-0.034,-0.034,-0.1183,-0.1193,-0.1307,-0.1369,-0.1392,-0.1284,-0.1068,-0.0735,-0.0426,-0.0283,-0.0286,-0.0278,-0.0284,-0.0222,-0.0223,-0.0227,-0.0211,-0.0211,-0.0211,-0.1236,-0.127,-0.1353,-0.1415,-0.1445,-0.1322,-0.1071,-0.0629,-0.0227,-0.0211,-0.0314,-0.0322,-0.0317,-0.0324,-0.0231,-0.0232,-0.0239,0,0]}],[{"header":{"parameterUnit":"m.s-1","parameterCategory":2,"la1":30.2992,"la2":30.254,"lo1":-89.0895,"lo2":-89.0443,"dy":0.0025,"dx":0.0025,"nx":19,"ny":19,"refTime":"2026-04-21T21:00:00:Z","depth":"4","parameterNumber":2,"parameterNumberName":"U-component_of_CURRENTS"},"data":[0,0,0,-0.2059,-0.2063,-0.2228,-0.2228,-0.2295,-0.2295,0,0,0,0,0,0,0,0,0,0,0,-0.2004,-0.2005,-0.2059,-0.2063,-0.2227,-0.2228,-0.2295,-0.2295,0,0,0,0,0,0,0,0,0,0,0,-0.2003,-0.2005,-0.2007,-0.2064,-0.2227,-0.2228,-0.2295,-0.2206,0,0,0,0,0,0,0,0,0,0,-0.2064,-0.2042,-0.2005,-0.2007,-0.2065,-0.2227,-0.2228,-0.2203,-0.2211,-0.218,0,-0.2218,0,-0.2255,-0.2297,-0.2297,0,0,0,-0.2061,-0.2036,-0.2072,-0.2007,-0.2066,-0.2227,-0.2153,-0.2209,-0.2218,-0.219,-0.2219,-0.2223,-0.2256,-0.2297,-0.2297,-0.2331,-0.2331,0,0,-0.2052,-0.2036,-0.2067,-0.2079,-0.2122,-0.2147,-0.2158,-0.2216,-0.2231,-0.2219,-0.2225,-0.2257,-0.2297,-0.2297,-0.2331,-0.2331,0,0,0,-0.2027,-0.203,-0.2069,-0.2075,-0.2115,-0.2152,-0.2164,-0.2229,-0.2241,-0.2226,-0.2258,-0.2297,-0.2297,-0.233,-0.2331,-0.2378,0,0,0,-0.2022,-0.2015,-0.2065,-0.2057,-0.2115,-0.2196,-0.2176,-0.2237,-0.2246,-0.2258,-0.2297,-0.2298,-0.233,-0.233,-0.2376,-0.2383,0,0,0,-0.1994,-0.2013,-0.2034,-0.2056,-0.2128,-0.2197,-0.2213,-0.2241,-0.2264,-0.2297,-0.2298,-0.233,-0.233,-0.2375,-0.2381,-0.2354,0,0,0,-0.1967,-0.2001,-0.2035,-0.2086,-0.2126,-0.2207,-0.2214,-0.2284,-0.2318,-0.2297,-0.233,-0.2331,-0.2374,-0.2379,-0.2354,-0.2057,0,0,0,-0.1985,-0.2003,-0.2032,-0.2065,-0.2139,-0.2184,-0.2257,-0.2308,-0.2308,-0.2299,-0.2302,-0.2377,-0.2381,-0.2354,-0.209,0,0,0,0,-0.2021,-0.2042,-0.2071,-0.2129,-0.219,-0.2257,-0.2312,-0.2327,-0.2365,-0.2332,-0.2374,-0.2374,-0.2356,-0.2181,-0.2333,-0.2333,-0.2333,-0.2333,-0.2333,-0.2003,-0.2047,-0.2097,-0.2161,-0.222,-0.2308,-0.2354,-0.238,-0.2382,-0.2406,-0.2412,-0.2421,-0.224,-0.2416,-0.2417,-0.2417,-0.2417,-0.2417,-0.2417,-0.2004,-0.2017,-0.2105,-0.2172,-0.2252,-0.2321,-0.2393,-0.242,-0.2441,-0.2445,-0.2425,-0.2243,-0.2422,-0.2421,-0.242,-0.242,-0.2419,-0.2419,-0.2419,-0.1952,-0.1961,-0.204,-0.2137,-0.2237,-0.2335,-0.2366,-0.2443,-0.2466,-0.2478,-0.225,-0.2432,-0.2427,-0.2461,-0.2461,-0.2461,-0.2461,-0.2461,-0.2461,-0.1845,-0.1921,-0.1967,-0.2094,-0.2151,-0.2241,-0.2354,-0.2347,-0.2403,-0.2253,-0.2479,-0.2435,-0.2433,-0.2428,-0.246,-0.246,-0.246,-0.246,-0.246,-0.1728,-0.179,-0.1831,-0.1891,-0.2001,-0.2038,-0.2203,-0.2131,-0.2091,-0.1999,-0.2112,-0.213,-0.2071,-0.2078,-0.2058,-0.1982,-0.1978,-0.1975,0,-0.1624,-0.1667,-0.1687,-0.1719,-0.1734,-0.1885,-0.1763,-0.18,-0.184,-0.1782,-0.2084,-0.2215,-0.2224,-0.2164,-0.2164,-0.2141,0,0,0,-0.1526,-0.1556,-0.1517,-0.1589,-0.1587,-0.1591,-0.1712,-0.1632,-0.1869,-0.1733,-0.1881,-0.1905,-0.2248,-0.2457,-0.2409,-0.2407,-0.2394,0,0]},{"header":{"parameterUnit":"m.s-1","parameterCategory":2,"la1":30.2992,"la2":30.254,"lo1":-89.0895,"lo2":-89.0443,"dy":0.0025,"dx":0.0025,"nx":19,"ny":19,"refTime":"2026-04-21T21:00:00:Z","depth":"4","parameterNumber":3,"parameterNumberName":"V-component_of_CURRENTS"},"data":[0,0,0,-0.0473,-0.0472,-0.0434,-0.0434,-0.0304,-0.0303,0,0,0,0,0,0,0,0,0,0,0,-0.0488,-0.0488,-0.0473,-0.0472,-0.0434,-0.0434,-0.0304,-0.0303,0,0,0,0,0,0,0,0,0,0,0,-0.0488,-0.0488,-0.0488,-0.0472,-0.0434,-0.0434,-0.0305,-0.035,0,0,0,0,0,0,0,0,0,0,-0.0396,-0.0429,-0.0488,-0.0488,-0.0472,-0.0434,-0.0434,-0.0353,-0.0347,-0.0303,0,-0.0311,0,-0.0307,-0.0294,-0.0293,0,0,0,-0.0458,-0.0434,-0.0423,-0.0488,-0.0472,-0.0434,-0.0447,-0.035,-0.0344,-0.0295,-0.0309,-0.0304,-0.0305,-0.0293,-0.0292,-0.017,-0.017,0,0,-0.046,-0.0474,-0.0429,-0.042,-0.0477,-0.0449,-0.0446,-0.0347,-0.0345,-0.0308,-0.0302,-0.0303,-0.0292,-0.0291,-0.0171,-0.017,0,0,0,-0.0476,-0.0476,-0.0469,-0.0425,-0.0426,-0.0448,-0.0445,-0.0349,-0.0348,-0.03,-0.0301,-0.0291,-0.0289,-0.0171,-0.0171,-0.0265,0,0,0,-0.0476,-0.0486,-0.047,-0.0477,-0.0429,-0.0399,-0.0449,-0.0354,-0.0343,-0.0302,-0.0291,-0.0288,-0.0171,-0.0171,-0.0263,-0.0317,0,0,0,-0.0487,-0.0486,-0.0487,-0.0478,-0.0468,-0.0401,-0.0393,-0.0352,-0.0344,-0.0293,-0.0288,-0.0172,-0.0171,-0.0262,-0.0313,-0.0288,0,0,0,-0.0493,-0.0507,-0.0488,-0.05,-0.0469,-0.0444,-0.0394,-0.0367,-0.0331,-0.029,-0.0171,-0.0171,-0.0261,-0.0311,-0.0287,-0.029,0,0,0,-0.0514,-0.051,-0.0516,-0.0499,-0.0502,-0.0448,-0.0428,-0.0364,-0.0298,-0.0196,-0.0194,-0.0264,-0.0313,-0.0288,-0.0246,0,0,0,0,-0.0525,-0.0536,-0.0531,-0.0531,-0.05,-0.048,-0.041,-0.0365,-0.0291,-0.0275,-0.0222,-0.0249,-0.0231,-0.0226,-0.0167,-0.0167,-0.0167,-0.0167,-0.0168,-0.0569,-0.056,-0.0581,-0.0569,-0.055,-0.049,-0.0457,-0.0374,-0.031,-0.0286,-0.0296,-0.0302,-0.0298,-0.0251,-0.0252,-0.0252,-0.0252,-0.0253,-0.0253,-0.0623,-0.0645,-0.0633,-0.0657,-0.0625,-0.0603,-0.0499,-0.0453,-0.0368,-0.0328,-0.0305,-0.0289,-0.0261,-0.0259,-0.0258,-0.0257,-0.0257,-0.0256,-0.0256,-0.0666,-0.0678,-0.0699,-0.0738,-0.0747,-0.0693,-0.0664,-0.0576,-0.0456,-0.0445,-0.0376,-0.0341,-0.0366,-0.0416,-0.0416,-0.0416,-0.0416,-0.0416,-0.0416,-0.0708,-0.0726,-0.0791,-0.0826,-0.086,-0.0858,-0.0768,-0.0694,-0.0568,-0.0476,-0.0461,-0.0356,-0.035,-0.0371,-0.0419,-0.0418,-0.0418,-0.0418,-0.0418,-0.0759,-0.0781,-0.0874,-0.0928,-0.0994,-0.0976,-0.0906,-0.0719,-0.0638,-0.0525,-0.0459,-0.0456,-0.0412,-0.0404,-0.0426,-0.0491,-0.0492,-0.0492,0,-0.0797,-0.0813,-0.0945,-0.1031,-0.1076,-0.1037,-0.0923,-0.0806,-0.0627,-0.0623,-0.0636,-0.057,-0.0564,-0.0524,-0.0517,-0.0548,0,0,0,-0.0837,-0.0875,-0.0968,-0.1055,-0.1107,-0.0967,-0.0885,-0.0811,-0.0664,-0.0554,-0.0497,-0.0496,-0.0499,-0.0425,-0.0349,-0.0343,-0.0372,0,0]}]]